User: anonymous   Login
Location: Unspecified
(0.0000°N, 0.0000°E)
Time: 20:14:34
(UTC+00:00)
Language:

STARLINK-32647 - Orbit

View from above orbital plane
View from above orbital plane
View from above satellite
View from above satellite

Ground track
Ground track

The orbit is defined by the following mean orbital elements,

1 62200U          26145.41006146 +.00000000 +00000-0 +60309-3 0 00004
2 62200  43.0039 197.5347 0001471 279.1648  80.9038 15.27620211    02
Epoch (UTC): 25 May 2026 09:50:29
Eccentricity: 0.0001471
inclination: 43.0039°
perigee height: 482 km
apogee height: 484 km
right ascension of ascending node: 197.5347°
argument of perigee: 279.1648°
revolutions per day: 15.27620211
mean anomaly at epoch: 80.9038°

The dashed part of the orbit path shows where the satellite is in the earth's shadow,  

DLR